Theta_e
325 323 323 323 325 327 329 329 326 325 326 327 328 327 323 320 322 319 314 311 314 323 327 327 326 324 324 322 323 326 328 328 327 326 326 326 326 326 326 325 324 323 321 320 318 316 313 312 310 309 308 307 307 306 306 306 305 305 305 305 305 305 305 305 306 307 308 309 310 309 309 310 311 311 312 313 313 314 314 314 313 311 308 304 304
324 323 323 324 326 328 329 329 327 326 327 327 327 327 324 321 323 319 313 309 312 322 326 325 325 324 323 322 321 324 327 328 326 326 326 325 324 322 322 323 323 323 321 320 319 318 316 315 313 311 311 310 309 308 307 306 306 305 305 305 305 305 305 305 305 306 307 308 310 310 310 310 310 311 312 312 313 313 313 314 314 312 310 306 304
326 325 325 327 328 329 329 329 329 329 329 329 328 327 325 322 323 319 311 309 313 320 323 323 324 323 323 322 320 322 326 327 326 326 326 323 322 321 320 320 322 323 322 321 320 319 318 317 316 314 314 313 312 311 310 308 306 306 305 305 305 305 305 305 305 305 306 307 308 309 309 309 309 311 312 312 313 313 313 314 314 313 312 308 306
329 329 328 329 330 330 331 331 330 330 330 331 329 328 326 324 324 318 311 312 316 320 323 324 324 323 322 321 320 321 324 327 326 325 325 323 321 321 321 321 323 325 325 324 322 321 320 319 318 317 315 315 314 313 312 311 309 307 306 305 305 305 305 305 305 305 305 305 307 308 309 309 310 310 311 312 313 313 313 313 314 313 312 310 307
330 331 330 331 331 331 332 332 331 331 330 331 330 330 328 324 324 319 314 317 319 322 324 326 326 325 323 322 319 320 322 325 326 325 324 322 320 321 324 325 325 327 327 326 325 324 323 322 321 320 318 317 317 315 314 313 312 311 309 306 305 305 304 304 304 305 305 306 306 307 308 309 309 310 311 312 313 313 313 313 313 313 313 311 309
331 331 331 330 331 332 332 332 332 331 331 331 331 331 330 326 325 321 317 320 323 324 326 326 326 327 326 323 320 319 320 322 324 325 324 322 321 322 326 327 328 328 328 327 327 326 325 325 324 323 322 320 319 318 317 315 314 314 313 310 307 305 304 304 304 304 305 305 306 306 307 309 309 310 310 312 313 313 313 313 313 313 313 312 310
332 331 331 331 331 331 332 332 331 331 331 331 330 331 331 329 327 322 318 322 326 326 327 326 326 327 327 326 323 321 320 320 322 324 325 324 322 323 327 328 328 329 328 328 328 327 327 327 326 326 325 322 320 320 319 317 316 316 315 314 312 309 306 304 303 304 304 305 306 307 307 308 309 309 310 312 312 313 313 313 313 313 313 312 311
329 329 328 328 329 331 331 331 331 330 331 331 330 331 332 331 328 323 320 322 326 327 327 327 326 327 327 327 326 324 321 320 321 323 324 324 323 325 328 328 329 329 329 328 328 328 328 327 327 327 326 324 322 322 322 320 319 317 317 316 315 313 311 309 305 304 305 306 306 308 309 308 309 309 310 311 312 313 312 312 313 313 313 312 311
325 324 324 326 327 327 328 329 330 330 330 331 331 331 331 331 330 326 322 322 324 326 327 327 326 326 327 328 327 326 324 322 322 322 323 323 324 326 328 327 328 328 328 329 328 328 328 328 328 327 327 326 324 323 323 323 322 321 320 318 318 317 315 313 310 306 306 308 307 307 309 309 309 309 310 311 312 313 313 312 312 312 312 312 311
322 322 322 324 324 322 323 326 329 330 330 330 330 331 331 331 330 329 326 323 323 324 325 326 326 325 325 328 328 327 326 325 323 321 321 322 324 326 327 327 328 328 328 328 328 328 328 328 328 328 327 327 326 324 324 324 324 323 323 321 321 321 319 315 313 310 307 311 313 308 309 311 311 311 310 311 312 312 313 313 312 312 312 311 310
316 316 316 318 318 317 320 323 327 329 330 329 329 330 330 330 330 330 328 326 324 324 324 325 325 324 324 327 329 328 326 325 324 322 322 323 324 326 327 327 327 327 327 327 327 327 328 328 328 328 328 327 326 325 324 324 325 325 325 324 323 323 323 318 316 313 309 314 319 313 310 311 312 312 311 311 313 313 313 312 312 312 311 311 310
309 308 309 309 309 311 314 317 321 324 326 328 329 330 330 330 330 330 330 328 326 325 325 326 326 326 325 325 328 328 327 325 325 324 324 324 324 325 325 326 326 326 326 325 325 326 327 328 328 328 328 327 327 326 325 325 325 326 326 326 325 324 324 322 319 316 311 314 322 321 315 312 312 313 313 312 312 313 313 313 312 311 311 311 310
306 306 307 307 306 307 311 314 316 320 325 327 329 330 330 330 330 330 330 330 329 327 326 326 327 328 327 326 327 328 328 327 327 326 326 326 326 326 325 325 325 325 324 324 324 325 326 327 326 327 327 327 328 328 327 326 326 326 326 326 326 325 325 324 322 319 314 312 319 323 321 317 315 313 312 313 313 313 314 313 312 311 311 310 310
304 305 306 307 306 306 311 315 317 320 325 327 328 329 329 329 329 330 330 330 330 329 328 328 329 328 326 324 327 329 329 329 329 328 327 326 327 327 326 324 323 323 323 323 324 324 325 326 326 326 327 327 328 328 328 327 327 327 327 326 326 326 325 325 324 322 319 313 312 319 321 321 320 316 312 312 312 313 314 313 312 311 311 310 309
303 304 306 308 309 309 310 314 318 321 323 325 325 327 327 327 328 329 330 329 330 330 330 330 330 329 325 323 326 329 329 329 329 329 329 327 327 328 328 326 324 323 323 324 324 325 324 324 325 326 326 327 328 328 328 327 327 327 327 327 327 326 326 325 325 323 323 317 311 314 320 321 322 320 315 312 311 311 313 314 313 311 311 310 309
303 305 308 310 312 312 311 313 316 318 320 320 321 322 324 325 326 327 328 328 328 329 329 330 329 330 329 326 327 328 329 329 328 329 329 329 328 329 329 329 328 327 326 326 326 326 326 325 325 325 325 326 327 327 327 327 327 327 327 327 327 327 326 326 326 325 324 322 315 312 317 320 322 322 320 316 312 310 311 313 314 312 311 310 310
303 306 309 311 313 313 313 313 313 315 316 316 316 317 319 322 323 325 326 326 327 327 328 329 329 329 330 328 329 329 329 329 328 328 329 329 329 329 329 330 329 329 328 328 328 328 327 327 326 325 324 325 326 326 327 327 327 327 327 327 327 327 327 326 326 326 324 324 320 314 314 317 320 322 322 320 316 314 311 311 313 314 312 310 310
304 306 308 309 311 312 312 312 312 314 315 315 314 315 316 318 319 321 323 324 325 326 327 327 327 327 328 328 329 329 328 328 328 328 328 328 329 329 329 329 329 329 329 329 329 329 328 327 327 326 325 325 326 326 326 327 326 327 327 327 327 327 327 327 326 326 325 325 323 320 316 316 318 322 323 322 321 321 318 313 312 313 313 312 310
304 305 305 306 307 308 308 309 309 310 311 312 313 312 311 312 313 314 318 320 322 324 325 325 325 325 326 326 327 327 327 327 328 328 328 328 328 329 329 329 329 329 329 329 329 328 328 327 327 326 326 326 326 327 327 327 327 327 327 326 326 326 327 327 327 326 326 325 324 323 321 319 318 320 322 324 324 324 322 319 314 312 312 313 312
305 304 304 304 304 305 305 305 305 305 306 307 307 307 306 306 306 307 309 311 314 317 319 321 322 323 324 324 324 325 325 326 326 327 328 328 327 328 328 328 328 328 328 328 328 328 327 327 327 327 327 327 328 328 327 327 327 327 327 327 327 326 326 326 326 327 326 326 325 324 324 322 321 320 320 322 324 324 324 322 319 315 312 312 313
305 305 305 304 304 304 304 304 304 303 304 304 304 304 304 304 304 304 304 305 306 307 309 312 314 317 319 320 322 323 323 324 324 325 326 326 326 326 326 326 327 327 327 327 328 328 327 327 327 327 327 328 328 328 328 328 328 327 328 327 327 327 326 326 326 327 327 326 326 325 324 324 324 324 322 321 322 324 324 324 322 320 317 314 313
305 305 305 305 305 305 304 304 304 304 304 304 304 304 304 304 304 304 304 304 304 303 304 305 306 308 310 312 314 316 318 319 320 321 322 324 324 324 324 323 324 325 326 326 327 327 328 328 328 327 328 328 328 328 328 328 328 328 327 328 327 328 327 327 326 327 327 326 326 326 325 325 325 325 325 324 323 323 323 324 324 323 321 318 315
305 305 305 305 305 305 304 305 304 304 304 304 304 305 305 305 305 305 305 304 304 304 303 303 303 303 304 305 306 308 310 312 314 315 316 318 320 321 321 321 320 320 320 322 323 324 325 326 327 327 327 327 327 327 327 327 327 328 328 328 328 328 328 327 327 327 327 326 326 326 325 325 324 325 326 326 325 324 323 323 323 324 324 322 319
306 306 305 305 305 305 305 305 305 304 304 304 305 305 305 305 305 305 305 305 305 304 304 303 303 302 302 302 303 304 305 307 310 311 313 315 316 317 318 318 317 316 314 313 314 316 318 320 322 323 322 323 323 323 324 325 326 327 328 328 328 328 328 328 327 327 327 327 326 326 326 326 325 324 325 327 327 326 325 323 322 322 323 324 322
307 306 306 306 306 305 305 305 305 305 305 305 305 305 305 305 305 305 305 305 305 304 304 303 303 303 303 302 302 302 303 304 306 308 312 314 315 316 317 317 316 316 313 309 308 307 308 312 316 319 320 320 321 321 321 322 323 324 325 327 328 328 328 328 328 328 327 327 327 326 326 326 325 324 324 325 326 326 326 325 323 322 321 324 323
307 307 307 306 306 306 306 305 306 305 305 305 305 305 305 305 305 305 305 305 304 304 304 303 303 303 303 303 302 302 302 302 303 304 307 310 313 315 315 315 315 315 313 311 309 308 308 309 309 313 317 318 319 321 322 322 322 322 323 325 326 328 328 328 328 328 328 328 327 326 326 326 326 325 324 324 325 326 325 324 324 322 322 323 324
308 308 307 307 307 306 306 306 306 306 305 305 305 304 304 304 305 305 305 305 304 304 304 303 303 303 302 303 303 303 303 303 302 302 303 304 308 311 312 314 315 315 315 313 312 312 311 309 306 306 310 314 317 318 321 322 322 322 323 323 325 326 327 328 328 328 328 328 328 327 326 326 326 326 325 325 324 324 324 323 323 322 321 321 322
309 309 308 308 307 307 307 306 306 306 306 306 305 305 304 304 304 304 304 304 304 304 303 303 303 302 302 302 302 303 303 303 303 303 303 302 304 306 309 312 313 314 315 315 315 315 313 311 310 309 309 312 314 314 317 320 321 321 322 323 324 325 326 327 327 328 328 328 328 327 326 326 326 326 326 326 325 324 324 323 322 322 321 320 320
310 309 309 309 308 307 307 307 307 307 306 306 306 305 304 304 304 304 304 304 304 303 303 303 302 302 302 302 302 302 302 302 302 303 303 303 304 304 306 309 311 312 313 314 315 316 315 314 313 312 312 312 311 311 313 315 317 318 319 320 323 324 325 326 326 327 327 327 327 328 327 327 326 326 326 326 326 325 325 324 323 322 321 321 320
311 311 310 309 308 308 308 307 307 306 306 306 306 306 305 304 304 304 304 304 304 303 303 302 302 302 302 301 301 301 301 301 302 302 303 303 304 304 305 307 309 310 312 313 313 314 314 314 314 315 316 312 309 309 310 311 313 313 314 316 319 322 325 326 326 326 326 326 326 327 326 326 326 326 326 326 326 326 325 325 324 323 322 321 320
312 312 311 310 309 309 308 308 307 307 306 306 306 306 305 304 303 303 304 304 303 303 303 302 302 301 301 301 300 300 300 300 300 300 301 302 303 304 305 306 307 308 309 311 312 311 311 313 314 314 314 310 307 306 307 310 312 312 312 313 314 318 322 324 326 326 326 326 326 327 326 326 326 326 326 326 326 326 326 325 325 324 323 322 321
313 313 313 312 311 310 309 308 308 307 307 306 306 306 306 304 303 303 303 303 303 303 303 302 302 301 300 300 300 300 299 299 299 299 299 300 300 302 303 305 306 308 308 309 310 309 309 310 309 309 310 308 306 306 305 307 309 311 312 313 313 313 315 319 323 325 326 326 326 326 326 326 326 326 326 326 326 326 326 325 325 325 324 323 322
313 313 313 313 313 312 310 309 308 308 308 307 307 306 306 304 303 303 303 304 303 303 303 302 302 301 300 300 300 300 299 299 299 299 298 298 298 299 300 302 304 307 308 309 309 309 308 308 308 308 308 306 305 306 307 307 306 307 310 312 313 313 313 314 317 320 323 325 325 326 326 326 326 325 325 326 326 326 326 326 326 325 325 324 323
314 314 314 314 314 313 312 311 309 309 308 308 307 307 306 305 303 303 303 303 303 303 303 302 302 301 301 300 300 299 299 299 299 298 298 298 297 297 298 299 301 303 305 307 308 308 308 308 308 308 308 307 305 306 307 306 305 306 307 309 311 313 314 313 313 315 318 321 322 323 324 325 326 326 326 326 325 326 326 326 326 326 325 325 325
316 315 315 315 314 314 313 312 311 310 309 309 308 307 306 305 303 302 303 303 303 303 302 302 301 301 301 300 300 299 299 299 298 298 298 297 297 297 297 297 298 299 300 303 305 306 306 306 307 307 308 308 307 307 306 304 304 304 306 308 309 311 313 313 313 313 315 317 318 319 320 321 323 325 325 325 325 325 326 326 326 326 326 325 325
318 317 316 316 315 314 314 313 312 311 310 310 309 308 306 305 303 302 303 303 302 302 301 301 301 300 300 300 299 299 298 298 298 298 297 297 296 296 296 297 298 298 298 298 300 302 302 303 304 305 306 307 307 308 307 305 304 305 305 306 308 310 313 314 314 314 314 314 315 315 316 317 320 322 324 325 325 325 325 325 326 326 326 326 326
320 319 318 316 316 315 314 314 313 311 311 310 310 308 307 305 303 302 302 303 302 302 301 301 300 300 300 299 299 299 298 298 298 297 296 296 295 296 296 297 298 298 299 298 299 300 301 301 301 301 303 304 305 306 307 306 306 306 305 304 306 309 312 314 315 316 316 314 313 313 314 316 318 321 323 324 325 325 325 325 325 325 325 326 326
320 320 319 318 316 315 315 314 313 312 311 311 310 308 306 305 303 302 302 302 302 302 302 301 301 300 300 299 299 299 298 298 296 295 295 295 295 295 296 297 298 299 299 299 299 300 300 300 299 299 300 301 301 303 305 305 305 306 306 305 304 306 310 313 316 317 317 317 316 314 315 316 318 320 323 324 325 325 325 325 325 325 325 325 325
318 318 318 318 318 316 315 315 314 312 312 311 310 308 306 304 303 302 302 302 302 302 302 302 301 301 300 300 299 299 297 296 295 294 294 294 295 296 296 297 298 299 300 300 299 300 300 300 300 300 299 300 300 300 301 302 303 305 306 306 306 306 306 309 313 316 317 318 318 317 316 317 317 319 321 323 324 325 325 325 325 324 325 325 324
319 317 317 317 318 317 316 315 313 312 312 311 310 308 305 303 302 302 303 303 303 302 302 302 301 301 301 300 299 297 295 294 294 294 294 294 295 296 296 297 298 298 299 300 300 300 300 300 300 300 300 300 300 300 300 301 301 302 304 306 308 308 307 306 308 311 314 316 317 318 318 317 317 318 320 321 323 323 323 324 324 324 324 324 324
320 318 316 317 318 318 317 315 313 312 312 311 309 307 304 303 303 303 303 303 303 302 302 302 301 301 300 299 297 295 294 293 293 294 294 294 295 296 296 297 298 298 298 299 299 300 300 300 300 300 301 301 301 301 301 301 301 302 303 304 306 307 308 307 306 306 308 312 315 317 318 318 318 318 318 319 321 321 321 322 323 324 324 324 324
321 319 317 316 317 317 317 315 313 312 311 310 309 306 303 303 303 304 304 303 303 302 302 301 301 300 299 296 294 293 293 293 293 294 294 294 295 295 296 296 297 297 298 298 298 299 299 300 300 300 301 301 301 301 301 301 301 301 302 304 304 305 306 308 308 307 305 307 310 313 316 317 318 318 318 318 319 319 319 320 321 323 324 324 324
321 319 317 316 316 316 315 314 313 312 311 310 307 305 303 303 304 304 304 303 302 302 301 301 300 298 296 293 293 293 293 293 294 294 294 295 295 295 295 296 296 297 297 297 298 298 298 299 299 300 300 300 301 301 301 301 301 301 303 304 304 304 305 307 309 309 308 306 307 310 313 315 316 317 318 318 318 318 319 319 321 323 324 324 324
320 319 317 316 316 315 314 313 312 311 310 308 305 303 303 303 304 304 303 303 302 301 300 299 297 294 293 292 293 293 294 294 294 295 295 295 295 295 295 296 296 296 297 297 297 297 297 298 298 299 299 300 300 300 300 301 300 301 302 303 303 304 306 306 308 309 309 308 307 307 309 312 315 316 317 317 318 318 318 319 320 322 324 324 324
320 318 316 315 315 314 313 312 310 309 307 306 304 303 304 304 304 304 303 302 301 300 298 295 293 293 293 293 294 294 294 295 295 295 295 295 296 296 296 296 296 296 296 297 297 297 297 297 297 298 298 299 299 299 300 300 300 300 301 301 302 303 305 306 306 307 307 307 308 308 308 309 313 315 316 317 317 317 318 319 320 322 323 324 323
319 318 316 315 314 313 312 311 309 307 305 304 303 304 305 304 304 303 302 301 299 296 294 293 293 293 294 294 294 295 295 295 295 296 296 296 296 296 296 296 296 296 296 297 297 297 297 297 297 297 297 298 298 298 298 299 299 299 299 300 301 302 304 305 305 305 306 307 309 309 309 309 310 312 314 314 316 317 317 318 320 321 322 323 323
318 317 316 315 313 312 311 309 307 305 304 304 304 305 304 304 303 301 300 297 295 293 293 293 293 294 294 294 295 295 295 296 296 296 296 296 296 296 296 296 296 296 296 296 296 296 296 296 296 297 297 297 297 297 298 298 298 298 299 299 299 300 301 302 303 304 305 307 308 309 309 309 309 311 312 312 313 316 317 318 318 319 320 322 322
316 316 314 313 312 311 309 307 305 304 303 304 304 304 303 302 300 298 295 293 293 293 293 293 294 294 294 295 295 295 296 296 296 296 296 296 296 296 296 296 296 296 295 295 296 296 296 296 296 296 296 296 296 296 297 297 297 297 297 298 298 299 299 300 301 302 303 305 306 308 309 309 308 309 310 310 311 313 315 316 317 318 319 321 321
315 314 313 312 311 309 307 304 304 303 303 303 303 302 301 299 296 294 293 293 293 293 293 294 294 295 295 295 296 296 296 296 296 295 295 295 295 295 295 295 295 295 295 295 295 295 295 295 295 296 296 296 296 296 296 296 296 296 295 296 297 298 299 300 301 302 302 303 304 305 307 307 307 308 310 310 309 309 312 314 315 317 318 319 320
314 313 312 310 308 306 304 304 304 303 302 302 300 299 296 294 293 292 292 293 293 293 294 294 295 295 295 295 296 296 295 295 295 294 294 294 294 294 293 293 293 293 293 293 293 293 294 294 295 295 295 295 295 295 296 296 296 295 295 295 296 297 299 300 301 302 302 303 303 304 306 307 307 307 309 310 308 307 309 311 313 315 317 318 318
313 311 309 307 305 304 303 303 302 302 300 298 296 294 293 292 292 292 293 293 293 293 294 294 294 294 295 295 295 295 295 295 294 294 294 293 293 293 292 292 292 292 292 292 292 292 292 292 293 293 293 294 294 294 294 295 295 295 295 295 295 296 297 299 300 301 302 303 303 304 305 307 307 307 308 309 309 307 307 308 310 313 315 317 317
Wind_Speed
10 11 13 15 15 13 11 10 10 12 14 13 12 11 10 9 8 8 11 17 18 17 17 16 16 18 20 18 16 15 13 12 11 10 9 8 7 6 5 3 2 1 1 1 1 1 1 1 1 1 1 1 1 2 2 2 2 3 3 2 1 2 2 2 1 1 1 2 2 3 4 5 6 7 8 9 11 13 14 16 18 18 18 17 16
10 12 14 15 13 11 10 9 9 12 15 15 14 13 11 10 9 8 11 17 18 17 16 15 15 16 18 19 18 17 15 13 12 11 10 8 6 5 4 3 2 1 1 1 1 2 2 2 2 2 2 2 2 2 2 2 1 2 3 3 3 3 2 3 3 2 1 2 1 2 3 4 4 5 6 7 9 10 12 14 16 17 17 16 16
11 12 13 13 11 11 11 9 8 11 14 15 15 14 13 12 10 9 12 16 18 17 15 14 13 14 16 18 20 19 17 15 13 13 11 8 7 5 5 4 3 2 1 0 1 1 2 2 2 3 3 3 3 3 3 2 2 1 2 4 4 4 4 3 4 4 3 2 2 1 1 2 3 4 5 6 7 8 10 12 13 15 15 15 15
13 12 13 14 12 11 10 9 9 10 13 15 16 16 15 14 11 9 12 16 17 17 16 13 13 13 15 17 20 21 20 18 15 14 13 10 8 7 6 6 5 4 2 1 1 2 2 3 3 3 4 4 4 4 3 3 2 2 1 2 5 6 6 5 4 5 4 3 3 2 1 1 2 2 3 4 5 6 8 9 11 13 14 15 15
13 12 12 12 12 11 9 8 8 9 11 13 16 17 16 15 12 10 12 16 17 17 16 14 12 12 14 16 19 21 21 20 18 16 14 12 10 8 7 7 6 5 3 2 1 2 3 3 4 5 5 6 5 5 4 3 3 3 2 1 3 5 7 7 6 6 6 5 4 4 3 2 2 1 2 3 3 4 5 7 9 11 13 14 14
13 10 10 9 9 9 8 8 8 8 9 11 14 16 17 16 14 12 14 17 17 17 17 16 14 12 13 14 17 21 23 22 21 20 18 15 12 10 9 8 7 6 4 3 1 1 2 3 4 5 6 6 6 7 6 4 5 5 4 3 2 3 5 7 8 7 7 7 7 6 5 4 3 2 2 2 2 2 3 5 7 9 11 12 13
11 8 7 7 7 6 6 7 8 8 9 9 12 14 15 17 16 14 17 19 19 18 17 16 14 12 12 14 16 20 23 24 24 23 21 18 15 13 12 10 9 8 6 5 3 2 0 1 3 4 6 7 7 7 7 6 7 7 6 5 4 3 3 5 8 9 8 9 9 8 7 6 5 4 3 3 2 1 1 3 5 7 9 10 11
6 6 5 5 6 5 5 6 7 7 8 9 11 13 14 16 16 17 18 21 21 19 19 17 15 13 13 14 15 17 21 24 25 24 23 21 18 15 13 12 11 10 9 7 6 4 3 2 2 3 5 6 7 7 8 8 8 8 7 7 6 5 4 3 5 8 9 10 11 11 9 7 6 5 5 4 4 3 1 1 3 5 6 8 9
3 3 3 3 4 5 6 7 7 8 8 9 11 12 13 15 16 19 20 21 22 21 21 20 17 16 16 14 14 15 18 22 24 24 24 22 18 16 14 13 13 12 11 10 9 8 7 5 4 3 3 5 6 6 6 8 8 9 8 9 9 9 7 5 4 6 8 9 11 12 11 9 8 6 6 6 5 4 3 2 1 3 5 6 8
4 4 3 2 3 4 5 7 7 7 8 10 12 12 12 13 15 18 21 23 23 23 23 21 19 20 19 16 14 15 17 20 21 22 21 19 17 15 13 13 13 13 11 10 10 10 9 9 7 6 4 4 5 5 5 6 7 8 8 9 10 10 10 8 5 4 5 7 9 11 10 10 9 8 7 7 7 6 5 4 2 2 3 5 6
7 7 6 5 5 5 5 7 7 7 7 9 11 13 13 13 13 16 21 24 25 24 24 22 21 22 21 18 16 16 18 18 19 19 17 16 15 15 14 13 13 13 11 10 10 10 10 10 10 9 7 6 5 5 4 5 6 7 8 9 9 10 10 11 9 5 4 6 8 9 9 10 10 10 9 8 8 8 7 6 4 3 3 4 5
7 7 7 6 6 6 6 7 7 7 7 7 9 12 13 12 13 14 17 22 25 25 24 23 22 23 23 22 19 17 18 18 18 17 16 15 15 15 15 15 14 13 12 11 10 10 11 11 11 11 10 9 7 6 5 5 5 6 6 7 8 8 9 11 11 8 5 5 8 10 9 8 10 11 10 9 9 9 8 7 6 5 4 4 4
6 5 4 4 3 3 4 4 4 4 4 4 5 9 11 11 12 12 13 17 21 24 24 24 23 21 20 20 21 23 21 18 18 18 18 17 16 16 15 15 15 14 12 11 11 11 11 11 11 12 12 11 11 9 8 7 7 7 6 6 7 8 8 9 10 10 6 4 9 12 10 8 9 11 12 11 10 10 9 8 7 6 5 5 4
4 3 2 1 1 1 2 3 3 2 2 1 1 4 7 8 9 10 10 12 15 18 21 22 21 17 12 13 18 22 20 16 15 16 18 18 17 17 15 15 15 15 14 13 13 13 12 12 12 13 13 13 13 12 11 10 9 9 8 8 7 8 8 7 8 9 8 5 7 12 11 9 9 9 11 12 12 11 9 9 9 8 7 6 6
2 3 3 3 3 3 4 4 3 3 3 2 2 2 2 3 5 7 8 9 10 12 14 16 17 15 13 12 15 14 13 16 16 13 15 19 19 18 17 16 16 17 16 16 16 16 14 13 13 13 14 14 14 14 14 13 12 12 11 10 9 9 8 7 7 7 7 7 4 10 12 11 11 9 8 10 11 12 11 9 9 9 9 8 7
4 4 4 4 4 5 4 4 4 3 3 3 3 3 2 1 2 3 3 5 6 8 9 10 13 14 14 14 13 10 9 15 18 16 15 17 19 19 17 17 17 18 19 19 19 18 16 15 13 13 13 14 15 15 15 14 14 14 14 13 12 11 10 8 7 6 6 7 4 7 12 13 13 12 9 8 9 11 12 11 10 10 10 9 8
6 5 4 4 4 4 4 3 3 2 2 2 3 4 3 3 2 2 2 2 3 7 8 8 10 12 11 9 9 9 10 13 16 17 17 16 16 16 15 16 17 18 19 19 19 19 18 17 15 14 13 13 14 14 15 15 15 15 14 14 13 13 12 11 10 8 7 5 5 5 10 13 14 14 12 9 8 8 9 11 12 11 11 10 10
8 6 5 4 3 3 2 2 2 1 1 1 2 2 3 3 3 2 3 4 4 6 7 6 6 7 9 9 7 7 8 11 11 12 14 14 15 15 14 14 15 16 17 17 17 17 18 18 17 16 15 14 15 15 15 15 15 15 15 14 13 13 14 13 12 11 9 7 6 5 7 11 13 14 14 12 10 9 8 9 11 12 12 11 11
9 8 7 6 5 4 3 3 2 1 0 1 1 0 1 2 2 3 3 4 5 5 5 5 5 5 7 8 9 8 6 7 8 7 8 9 12 13 13 13 13 15 15 16 17 16 16 17 17 16 16 16 16 17 16 16 15 15 15 14 13 13 14 14 14 14 12 11 9 6 7 9 11 13 15 15 13 12 10 9 10 12 13 12 12
9 9 9 8 8 7 7 6 5 5 4 3 2 2 2 1 0 1 3 4 5 6 6 5 5 5 5 5 6 7 7 7 7 6 5 6 10 12 12 13 13 14 14 15 16 17 17 17 16 16 15 15 15 15 16 17 17 16 15 14 13 13 13 14 15 15 15 14 12 10 9 10 11 11 13 15 16 15 14 12 11 11 12 13 13
8 8 8 8 8 8 8 7 6 6 6 5 4 4 3 3 3 2 1 2 3 4 5 6 7 7 7 7 6 6 7 7 7 7 6 6 9 11 13 14 14 15 15 16 17 18 19 19 18 18 18 17 15 14 14 15 16 17 16 15 14 14 13 13 14 15 16 16 16 14 12 12 13 12 12 13 15 17 17 15 14 13 12 13 14
7 7 7 7 6 6 6 5 5 5 4 4 4 4 4 4 4 5 4 4 4 4 4 5 6 7 7 8 9 9 9 8 8 8 7 7 8 10 12 14 15 17 18 19 19 19 20 20 21 21 21 20 19 18 17 16 16 15 15 14 15 15 14 14 14 14 16 17 18 18 16 14 14 14 14 13 13 16 17 18 17 16 15 14 15
6 6 6 5 5 5 5 4 4 4 4 3 3 3 4 4 5 6 7 7 6 5 5 5 5 6 7 7 8 9 10 9 9 8 7 7 8 9 10 11 14 17 19 19 19 19 20 21 21 22 22 22 22 22 22 21 19 17 15 15 16 16 15 15 16 15 15 17 19 20 19 18 16 15 17 16 15 15 15 17 19 19 18 17 16
5 5 5 5 4 4 3 3 3 4 4 4 3 4 4 5 6 7 7 7 7 7 6 6 5 6 6 7 7 8 9 9 9 9 7 7 8 10 10 11 13 16 18 20 20 19 20 19 19 21 23 23 22 23 23 23 24 22 19 18 18 18 18 17 17 18 17 17 19 20 22 22 20 18 17 18 19 17 16 16 18 19 19 19 19
5 5 4 4 4 3 3 2 1 2 3 3 4 4 5 6 7 7 7 8 7 7 6 6 5 5 5 6 6 7 8 9 10 10 8 7 7 10 11 12 13 15 17 19 20 20 20 19 17 16 17 17 16 18 18 19 21 22 22 22 21 20 20 19 18 19 20 20 19 21 23 24 23 21 19 19 20 19 19 18 17 18 18 19 19
6 6 5 4 4 4 3 2 1 0 1 2 3 4 5 5 7 7 8 8 8 8 8 8 7 6 5 5 6 6 7 8 10 10 10 9 7 8 11 12 14 15 16 18 18 18 17 18 18 17 16 16 14 14 15 15 17 18 20 22 22 21 21 21 19 19 21 22 21 21 22 24 26 25 23 22 21 21 21 20 19 18 18 18 19
8 8 7 6 6 5 5 4 3 2 2 3 3 4 4 5 6 7 8 8 8 9 9 9 9 9 8 7 6 7 7 8 8 9 10 10 9 8 9 11 13 14 14 15 16 16 16 17 18 19 17 16 16 16 16 15 15 16 17 19 21 21 22 23 23 22 22 22 23 22 21 23 26 28 27 25 25 24 23 22 21 19 18 18 20
10 10 9 8 8 7 7 6 5 4 4 4 5 5 5 5 6 6 7 8 8 8 9 9 9 10 10 10 9 8 8 8 9 9 9 11 10 10 10 9 11 13 14 14 14 14 15 15 14 15 15 15 17 19 19 17 15 15 15 17 19 20 21 22 23 24 23 23 23 22 22 21 23 27 29 28 28 27 26 25 24 22 19 19 19
12 12 11 10 10 9 9 8 7 6 6 6 6 7 7 7 7 7 8 9 9 9 9 9 9 9 10 10 10 9 9 9 9 10 10 11 10 11 11 9 9 12 13 15 15 13 12 13 13 13 13 14 17 19 19 18 18 17 16 16 17 18 19 19 21 23 23 24 22 21 21 20 21 24 28 30 31 31 29 27 27 25 22 20 19
14 13 13 12 12 11 10 10 9 8 8 7 8 8 8 8 8 9 9 10 10 10 10 9 9 9 9 10 10 9 9 9 8 9 10 11 12 12 12 11 11 12 12 15 18 16 13 14 13 12 13 15 18 19 19 18 19 18 19 19 17 17 18 18 19 20 21 23 23 22 21 20 20 22 25 28 32 33 32 30 30 29 27 23 20
17 16 15 15 14 12 12 11 11 11 10 9 9 10 10 10 10 10 11 11 12 12 12 12 12 11 11 11 10 10 11 10 10 9 9 10 12 12 14 14 12 13 14 15 20 21 16 14 15 14 15 18 19 20 20 20 19 17 18 20 20 19 19 19 19 19 19 20 22 23 22 21 21 22 24 27 30 33 36 34 32 31 30 27 24
19 18 18 17 15 14 13 13 13 13 12 11 11 11 11 11 12 12 13 13 13 14 14 15 15 14 14 14 13 13 12 12 12 12 11 11 11 12 14 15 13 12 13 15 21 25 22 21 23 21 20 22 22 21 21 23 23 21 18 19 21 22 22 21 20 20 20 20 22 22 23 22 21 21 23 26 28 32 35 36 35 33 31 30 27
21 20 20 18 17 15 14 14 14 15 14 13 13 13 12 13 13 14 14 14 14 15 16 16 17 17 16 16 16 16 16 15 15 15 15 15 15 13 13 14 13 12 12 13 19 25 25 23 23 22 22 25 26 23 22 23 25 25 22 21 20 21 23 24 24 23 22 22 23 23 23 23 22 21 21 24 27 30 33 35 37 36 33 31 30
22 21 20 19 18 17 16 16 16 16 16 15 15 14 14 15 15 15 15 15 15 16 16 17 18 18 18 18 18 18 18 18 18 19 19 19 19 18 16 16 15 14 14 14 16 22 25 23 21 20 21 24 26 24 23 24 24 25 25 24 22 22 23 25 26 27 25 24 23 24 24 24 25 24 23 23 25 28 31 34 36 38 36 33 32
24 23 22 20 19 18 18 18 18 18 18 17 16 16 16 16 17 17 16 16 16 16 16 17 18 19 19 20 20 20 20 20 21 21 22 22 21 20 20 19 19 18 18 17 17 21 25 25 22 21 20 21 21 20 24 27 26 24 25 25 25 24 24 25 27 27 28 27 26 26 25 24 25 27 27 27 27 27 29 31 34 36 36 35 34
25 24 23 21 21 20 20 20 20 20 20 19 18 18 18 18 18 18 18 17 17 17 17 17 18 19 20 21 22 22 22 23 23 23 23 23 22 22 22 21 21 22 21 21 21 23 27 29 28 25 22 20 20 19 22 28 27 24 24 26 27 26 25 25 26 27 29 30 29 29 28 26 25 26 27 28 28 28 29 30 32 34 35 36 36
28 26 24 23 22 22 22 22 21 21 21 20 19 20 20 20 20 20 19 18 18 18 18 19 19 20 21 22 23 24 25 26 26 25 24 24 23 23 23 22 22 23 23 23 23 23 26 30 33 32 29 27 26 21 20 26 28 25 24 25 26 27 27 26 25 26 28 30 31 31 30 29 27 27 27 27 27 27 28 29 31 32 34 35 35
30 28 25 24 23 23 22 22 22 22 22 21 21 21 21 22 21 21 20 19 19 19 20 21 22 23 24 25 25 26 27 28 28 27 25 24 23 23 23 23 23 23 24 25 25 24 26 29 33 35 34 33 34 29 25 28 29 26 27 27 26 27 28 28 27 25 25 26 29 31 32 31 30 29 28 29 28 27 27 27 29 30 32 34 35
30 28 26 25 24 24 23 23 23 23 22 22 22 22 23 22 22 21 20 19 20 20 21 22 24 25 26 27 28 29 29 29 28 27 26 25 24 23 23 23 24 24 25 25 26 26 27 30 32 34 35 34 34 34 33 32 31 29 29 29 27 26 27 29 29 27 25 24 24 27 31 32 32 31 30 30 29 29 28 28 29 29 30 32 35
28 27 26 26 26 25 24 24 24 23 23 23 23 23 23 22 22 21 20 20 21 22 23 24 25 27 28 30 31 30 30 28 27 27 26 25 25 25 24 24 24 25 26 26 26 27 28 30 32 33 35 34 34 35 35 34 33 30 29 27 26 24 24 27 29 29 29 27 24 23 26 29 32 32 32 31 30 29 29 29 30 31 31 32 33
24 24 25 27 29 28 28 27 26 25 25 25 24 23 22 22 21 21 20 21 22 24 25 27 28 30 31 32 32 31 29 29 28 27 26 25 26 26 25 25 25 26 26 26 26 27 27 28 30 31 33 34 34 34 34 33 31 29 27 27 28 27 26 27 28 30 32 32 29 25 24 25 28 31 32 32 31 30 29 29 30 32 32 32 32
21 23 26 28 31 31 30 29 28 27 27 25 23 22 22 21 20 20 21 22 24 26 27 29 30 32 33 33 33 32 31 30 30 29 28 27 26 26 26 26 26 26 27 27 26 26 25 25 27 28 29 32 33 33 34 33 33 31 26 23 25 28 28 27 26 27 30 32 32 31 27 24 25 27 28 31 32 31 30 29 29 30 31 30 31
19 24 27 29 31 31 30 29 28 27 26 24 22 22 22 21 20 21 22 24 26 27 29 31 33 34 34 33 33 33 33 32 32 31 31 29 28 28 27 27 27 27 28 28 28 27 26 24 24 24 25 28 30 32 32 33 32 29 22 19 21 23 24 25 24 23 24 27 28 30 30 27 25 26 26 26 29 31 30 29 28 29 30 29 29
18 22 27 30 32 31 30 29 27 25 23 22 22 21 21 21 21 22 23 25 27 29 31 32 33 33 33 33 33 34 33 33 32 32 32 32 31 31 30 30 30 30 30 30 30 30 28 28 27 26 25 25 27 30 30 31 32 28 21 19 20 20 20 22 22 20 22 25 25 28 32 30 26 27 27 24 25 27 28 27 26 27 28 28 27
17 22 28 32 32 32 30 28 25 23 21 20 20 19 19 21 21 23 25 27 29 30 32 32 32 32 32 33 33 34 34 33 33 33 32 32 32 33 33 33 33 33 32 32 32 31 31 31 31 30 28 26 28 30 26 24 28 29 24 21 21 21 20 21 22 22 25 28 26 25 29 30 27 28 29 25 23 24 24 25 24 25 26 26 26
18 23 30 33 33 31 29 26 23 21 19 18 18 18 19 21 22 24 26 28 30 31 31 30 31 31 32 32 33 34 33 33 32 32 32 32 32 33 33 33 33 31 30 29 30 30 31 32 33 32 31 27 26 27 23 19 22 26 25 23 22 22 21 21 23 23 23 27 26 22 25 28 26 26 28 28 26 23 22 22 22 23 23 23 23
19 25 31 34 33 30 26 24 21 19 17 16 16 18 20 21 23 25 27 29 29 29 29 29 30 31 32 32 33 33 33 33 32 31 31 31 32 33 33 33 32 30 27 25 25 25 26 27 29 29 27 24 21 22 21 18 19 21 22 25 26 26 25 25 27 27 26 27 25 23 25 27 24 22 25 28 29 26 23 21 20 21 22 20 19
20 27 32 33 32 28 25 22 19 17 15 15 17 19 21 22 24 25 26 27 27 28 29 30 31 31 32 32 32 32 32 32 31 30 29 29 30 32 32 33 32 30 29 27 28 30 30 30 30 29 28 26 25 26 26 24 23 20 21 25 27 26 26 26 26 28 30 28 25 23 24 25 24 23 23 27 31 30 27 24 20 18 19 19 17
23 31 34 32 28 25 22 19 17 15 15 16 17 19 20 22 23 24 24 25 27 28 30 31 31 32 32 32 31 30 31 30 30 28 27 28 29 30 31 32 31 30 29 27 29 33 35 36 37 36 36 36 35 35 35 34 31 27 26 28 25 22 24 26 24 23 26 27 27 25 24 25 27 25 21 23 30 32 30 28 24 19 18 19 19
27 32 32 28 24 20 17 15 14 13 14 15 17 18 19 20 21 22 23 25 27 29 30 31 32 33 32 32 31 30 29 29 28 27 26 27 28 29 29 29 29 29 28 27 27 29 31 34 35 36 37 37 36 36 36 36 34 31 31 32 27 23 25 27 24 22 22 24 24 24 23 23 26 26 21 22 29 32 31 30 27 22 19 19 20
31 32 28 23 19 16 14 13 12 12 13 14 15 16 16 17 19 21 23 25 28 29 30 32 33 32 30 29 29 29 30 29 27 26 25 26 28 28 28 28 29 30 29 27 26 25 27 28 30 30 30 29 30 31 31 32 32 32 34 35 31 27 28 28 24 22 24 24 21 22 22 20 20 22 21 19 22 27 30 31 28 25 22 19 18
Wind_Direction
249 245 239 238 237 237 240 238 239 243 238 235 235 233 234 236 241 237 222 217 214 214 215 217 218 217 221 224 222 224 222 216 216 217 209 196 185 168 151 136 117 90 77 67 62 67 56 50 15 345 341 330 311 293 296 279 256 241 250 275 308 322 326 310 285 180 153 141 116 87 77 74 68 62 57 48 42 38 35 35 37 39 40 42 44
236 235 238 240 243 246 250 249 243 244 241 236 236 234 235 240 248 244 226 218 213 212 214 217 219 219 221 223 222 222 222 219 214 211 207 202 202 197 184 169 154 135 80 60 39 42 46 41 26 10 5 2 358 353 353 340 308 243 239 238 245 273 295 295 279 259 223 199 168 121 93 82 77 70 65 56 46 40 35 32 34 37 39 40 43
227 230 239 243 248 252 252 247 237 241 243 240 236 232 231 234 242 244 223 213 211 209 211 213 215 217 219 222 223 221 223 223 216 210 211 215 221 231 232 218 199 194 207 162 61 36 37 33 23 15 8 11 13 11 11 358 354 323 235 230 233 245 260 272 270 264 257 240 228 186 126 98 87 79 74 66 53 44 36 31 29 32 37 39 41
227 227 235 241 246 249 248 243 238 240 240 237 233 231 230 226 231 237 217 208 207 205 205 206 207 212 216 219 221 222 224 226 224 218 218 223 232 242 240 228 211 198 199 195 121 66 48 34 28 19 11 15 17 24 26 8 357 356 308 233 230 234 242 253 258 256 258 256 249 236 209 148 116 95 87 77 65 51 39 32 26 26 31 35 37
235 229 229 240 248 247 247 246 240 239 239 233 228 230 231 226 226 227 212 205 204 203 204 202 199 204 212 217 218 220 225 229 230 228 226 229 238 241 229 221 211 200 198 202 163 92 70 48 37 28 24 22 19 27 32 19 10 8 360 315 243 237 236 243 249 247 248 254 252 245 238 215 185 152 117 98 81 61 44 33 26 23 25 31 33
239 241 235 238 247 248 250 249 240 233 233 230 226 230 232 230 230 222 208 204 203 205 208 208 204 203 210 217 218 218 222 230 234 234 234 236 241 235 221 218 214 208 206 210 209 129 84 63 45 33 28 25 23 26 31 31 28 20 10 4 318 263 243 240 247 245 238 241 245 242 237 230 215 208 192 150 118 80 52 34 26 21 19 25 30
234 246 241 230 236 245 248 249 246 233 223 220 224 230 233 233 229 218 207 203 204 208 211 214 214 212 216 220 222 220 220 227 234 235 236 239 240 230 220 219 221 219 217 219 228 238 260 47 41 31 26 22 22 20 20 32 39 31 21 15 9 336 292 254 250 250 239 232 237 238 234 230 223 219 218 202 177 145 70 34 23 19 16 19 25
244 253 253 246 243 245 251 253 254 247 230 222 225 229 235 237 227 215 208 206 209 210 212 218 221 222 228 229 227 226 223 225 231 235 238 240 237 228 222 224 226 228 228 230 236 243 255 279 343 16 19 15 18 15 11 23 36 39 35 28 24 15 355 321 274 263 251 235 231 234 233 228 224 224 226 222 209 195 186 29 13 12 11 12 18
291 276 270 260 250 250 255 256 257 256 244 233 231 229 232 236 229 220 214 212 215 214 215 222 225 224 231 237 233 230 228 227 231 236 238 240 234 227 228 229 230 234 237 240 244 248 254 262 278 309 346 356 4 10 6 11 23 31 37 36 33 28 17 359 320 282 268 252 238 233 233 231 227 225 226 229 225 215 214 227 324 354 2 5 11
291 287 285 257 254 257 249 249 253 251 246 243 240 231 225 227 230 227 221 219 220 218 219 226 231 229 232 242 240 233 231 230 232 235 237 237 233 229 232 233 233 239 243 245 248 251 254 257 265 274 289 316 333 347 356 359 6 13 21 31 34 30 23 12 350 305 277 260 248 241 235 234 233 229 229 234 233 228 225 229 251 306 339 353 3
272 268 268 262 259 256 245 242 245 246 250 253 244 229 222 224 229 229 226 224 223 220 222 228 232 233 236 244 245 237 232 230 230 230 230 232 233 233 236 236 236 241 245 246 246 246 246 247 254 261 270 282 295 313 332 342 346 350 358 13 24 27 25 21 11 338 281 247 248 257 251 241 239 235 232 236 238 236 234 234 242 268 304 332 351
280 273 271 269 261 250 242 240 246 250 254 261 246 227 222 227 234 233 228 227 226 224 225 230 234 238 239 241 245 242 233 229 228 228 226 228 234 238 240 241 243 246 248 246 244 245 244 242 247 254 259 265 271 283 300 313 317 321 330 346 1 11 19 23 21 4 310 241 237 257 263 253 248 243 237 238 241 241 242 243 243 254 278 304 327
300 298 291 286 272 241 226 224 237 247 249 263 247 224 222 231 238 235 227 226 228 227 228 233 239 243 243 244 247 241 231 227 230 231 231 231 234 239 241 242 243 244 244 242 243 247 249 247 246 250 254 258 262 265 273 287 293 298 304 315 331 344 359 12 20 14 346 267 233 240 252 259 260 256 248 242 243 244 247 252 251 250 264 284 305
324 345 354 345 16 113 157 171 190 202 204 209 171 197 218 234 237 231 225 223 225 226 229 233 236 237 241 258 261 243 223 220 230 232 233 235 236 237 238 236 236 238 238 239 244 250 254 253 251 251 253 255 258 260 262 268 275 283 288 292 302 314 330 347 3 13 4 327 250 236 245 255 259 267 263 253 248 248 249 255 259 256 260 272 288
22 42 55 61 70 90 121 136 145 140 130 143 136 143 191 223 227 223 223 224 226 229 233 234 232 227 219 233 258 254 227 223 229 228 229 235 239 240 239 235 233 236 239 244 249 254 256 255 252 251 251 252 254 258 261 262 265 270 276 280 284 291 302 316 331 351 2 359 292 237 242 252 253 257 268 268 260 254 251 255 263 262 260 268 279
66 69 72 75 81 92 110 127 138 135 123 133 135 134 157 168 182 190 204 219 224 224 224 227 229 228 219 215 226 238 233 230 231 228 229 236 240 242 243 240 238 239 243 248 250 253 254 252 251 250 249 248 249 253 257 259 260 262 264 268 272 276 283 290 300 312 335 358 339 243 240 249 253 250 253 269 273 264 256 254 261 265 264 267 274
83 83 84 87 91 96 106 118 133 135 121 126 133 140 148 150 159 150 135 160 201 207 202 205 216 219 221 215 205 209 220 228 231 229 232 240 242 241 243 242 241 242 244 248 251 252 252 251 252 252 250 249 248 249 250 253 256 257 257 259 262 265 269 275 279 285 296 323 333 275 248 248 252 250 249 256 266 271 264 256 257 263 268 269 271
89 90 92 95 99 104 112 124 138 140 100 93 115 139 155 163 173 163 145 151 177 203 202 200 210 210 213 216 212 210 214 218 223 223 227 236 237 238 242 243 243 243 244 247 251 254 254 254 254 254 254 254 255 254 252 251 251 251 251 252 254 257 260 263 266 270 274 282 302 296 256 250 252 249 249 250 251 260 266 262 257 257 265 271 272
93 93 92 91 95 96 96 106 121 120 26 17 54 124 172 188 200 199 195 187 186 206 215 209 214 214 211 218 224 226 226 223 225 225 228 231 232 235 241 244 246 245 244 246 249 252 256 258 259 260 261 262 262 260 258 256 254 252 250 249 250 252 253 256 258 260 262 266 277 282 256 250 254 252 250 250 250 253 256 257 256 253 258 267 272
97 97 95 91 91 91 88 88 89 85 77 70 70 66 64 67 136 213 223 224 216 224 231 226 226 228 225 224 222 223 231 235 233 235 237 232 230 235 237 240 245 246 247 250 250 252 256 259 261 265 268 268 266 262 259 258 257 256 254 252 251 251 250 251 253 255 256 257 261 267 260 247 249 255 255 252 251 253 253 252 253 251 251 256 264
104 103 101 97 95 93 90 89 89 87 84 77 70 57 43 30 17 2 327 288 263 253 248 242 242 243 242 244 242 239 240 242 242 241 241 239 239 245 246 246 249 249 249 251 251 252 254 256 259 263 266 267 267 267 264 259 258 257 256 254 252 251 249 247 248 250 252 253 253 256 257 249 245 251 258 257 253 251 252 252 252 254 254 251 253
116 114 111 108 105 102 99 99 99 95 88 76 63 49 34 25 20 17 10 354 331 307 288 274 262 256 253 250 250 252 253 256 257 252 250 251 253 261 263 258 255 253 251 251 251 250 250 252 257 262 265 266 267 269 269 266 261 258 255 253 251 249 246 242 242 245 248 250 250 250 252 251 249 250 254 258 258 255 253 252 251 252 255 255 253
136 133 128 125 120 115 112 111 109 106 99 87 71 60 51 40 33 28 22 15 5 352 332 314 298 283 274 267 260 258 258 258 261 261 263 265 267 272 276 272 264 261 259 257 255 255 255 255 256 260 264 266 269 271 272 271 268 263 257 252 250 249 246 241 238 238 241 245 246 247 247 248 249 251 251 253 258 262 260 256 252 249 250 252 253
163 158 154 148 144 139 133 125 115 108 100 92 79 65 53 45 40 32 24 16 10 4 354 339 323 308 297 287 278 273 269 267 267 269 268 271 276 279 283 284 278 273 270 266 261 260 262 261 258 259 263 267 269 271 273 273 271 269 263 257 254 253 250 244 238 234 234 236 239 241 243 244 246 248 250 251 255 260 263 262 255 251 250 251 251
195 193 187 176 174 173 169 168 140 105 86 74 63 51 39 32 32 27 19 13 6 359 353 343 331 317 306 297 289 281 276 273 274 274 274 276 279 282 285 285 282 281 281 278 273 267 265 264 261 260 263 265 265 268 271 272 271 270 267 262 258 255 252 249 244 238 235 234 235 236 237 239 241 243 245 249 252 253 258 264 262 256 255 255 252
217 218 216 208 208 211 212 223 229 333 37 40 35 34 29 22 20 15 8 4 360 355 350 343 336 326 313 300 289 283 279 277 277 275 277 279 280 284 287 288 287 286 288 287 284 279 272 268 264 260 261 264 265 266 267 268 268 268 266 264 260 255 251 251 249 245 240 237 235 235 235 235 237 239 241 245 249 251 255 262 265 262 259 256 253
228 233 232 229 232 236 241 252 263 289 324 350 360 5 8 7 7 3 358 356 354 349 345 341 337 333 327 318 305 292 284 280 277 275 275 276 277 278 283 292 298 296 295 293 290 286 282 277 273 267 263 263 264 261 260 262 265 265 264 264 262 257 253 252 251 251 249 245 241 237 234 232 233 235 238 242 246 250 253 258 262 263 261 257 254
232 238 240 239 241 245 249 257 267 282 301 319 333 339 342 345 347 345 344 345 345 343 341 338 336 333 330 328 324 314 304 294 285 278 273 272 273 274 275 286 296 299 301 299 294 292 290 288 282 275 269 264 261 257 255 257 262 265 266 265 263 261 258 255 253 253 252 249 245 240 234 232 232 233 235 238 242 247 250 253 257 260 260 258 256
237 241 244 245 247 249 253 260 266 276 290 305 316 320 324 326 328 330 331 332 334 335 336 335 333 331 328 328 328 322 317 310 298 287 280 274 272 271 272 276 283 290 297 298 294 292 292 290 286 283 278 267 263 260 256 254 257 262 267 268 268 265 262 258 256 255 252 247 243 236 231 232 233 232 233 234 238 242 246 249 252 255 256 256 255
243 245 246 247 248 251 255 261 267 274 283 297 306 309 313 315 315 316 318 323 327 329 331 331 329 328 326 325 326 323 319 316 308 296 287 279 274 270 268 267 267 272 281 288 288 285 286 289 289 284 273 263 261 265 263 261 259 259 261 264 266 266 262 257 253 253 251 248 244 238 234 238 243 240 234 232 234 238 242 246 248 251 252 253 253
244 246 249 250 251 254 257 262 266 272 278 288 298 304 308 309 308 308 310 317 322 324 326 327 326 328 327 325 323 320 317 318 316 309 300 288 279 272 267 264 262 262 265 273 279 280 279 281 279 274 271 268 266 265 266 269 268 263 262 262 260 261 262 259 252 248 246 247 245 244 245 248 251 247 239 232 231 234 237 242 245 247 249 250 251
245 247 250 253 255 257 260 263 266 270 276 283 290 299 304 301 299 300 303 309 314 318 320 322 323 324 325 325 323 321 318 319 319 316 313 305 293 282 272 266 263 262 263 265 272 276 277 277 278 279 279 280 280 275 270 269 269 268 268 266 261 259 260 260 257 251 246 245 245 246 249 251 251 249 244 236 231 231 234 239 242 245 246 248 249
246 247 250 254 257 259 261 263 266 269 274 279 286 294 297 293 290 291 294 301 306 311 314 315 318 319 320 322 321 321 320 320 321 320 319 315 309 303 290 278 271 265 264 265 270 277 280 280 281 282 282 283 287 286 278 270 266 265 267 267 267 263 259 258 258 255 251 249 247 246 247 248 249 248 246 241 236 233 233 236 239 242 244 246 248
247 248 250 253 256 260 262 263 266 269 272 276 283 290 291 288 286 286 288 294 300 305 309 311 313 314 315 317 317 317 318 317 319 320 318 316 314 310 302 292 282 272 267 267 270 276 279 281 282 281 284 286 286 284 280 275 269 265 264 264 265 264 261 258 256 255 252 249 248 247 245 245 245 244 244 243 240 238 236 236 238 240 242 245 246
249 248 249 251 254 257 261 262 264 267 270 274 279 284 286 284 282 282 285 291 297 301 304 306 309 311 311 312 313 314 314 314 315 316 315 314 312 308 303 298 292 284 276 272 273 276 279 282 283 281 284 287 284 282 281 281 277 271 265 262 262 262 261 259 257 255 253 249 246 247 246 245 245 245 244 244 242 241 240 239 239 240 242 244 246
250 248 248 249 250 253 256 258 260 263 265 269 274 278 279 278 277 279 283 290 296 300 303 305 308 309 309 310 311 312 313 313 313 314 314 312 309 305 302 299 296 292 285 279 275 276 279 282 283 282 282 283 283 284 284 284 284 280 270 262 259 260 261 260 258 256 255 252 248 246 246 246 245 245 245 244 244 243 241 239 239 241 242 243 246
249 247 246 247 248 249 253 256 258 260 262 265 269 272 273 272 272 275 280 287 294 299 303 307 308 308 309 310 311 313 313 313 313 314 313 310 307 304 301 298 295 293 289 284 279 276 276 280 282 283 283 283 283 284 283 283 285 284 279 269 259 256 257 259 261 259 257 255 252 249 248 246 244 243 243 243 243 243 241 239 239 241 241 242 244
251 248 244 245 247 248 251 255 255 256 259 262 265 267 267 267 269 272 278 285 291 296 302 305 307 309 310 310 311 312 313 313 313 312 311 309 306 303 300 297 294 291 288 286 283 279 277 279 282 284 284 284 284 283 283 284 282 280 281 279 270 260 254 255 260 262 262 260 256 253 252 251 248 244 242 241 241 240 240 239 240 240 241 241 241
258 254 248 245 247 247 249 250 250 252 254 257 260 262 263 264 266 271 278 286 292 298 302 304 306 307 308 310 311 312 312 312 311 310 309 308 304 302 299 296 294 290 287 286 285 282 281 281 283 284 285 285 284 284 285 285 283 280 279 281 281 274 263 257 256 259 263 264 262 258 255 255 254 250 245 243 242 240 239 239 240 241 241 241 241
261 257 251 244 243 244 243 244 245 247 249 253 256 258 259 262 266 272 280 288 295 299 302 303 305 306 307 308 310 311 311 309 308 307 306 305 303 301 299 296 294 291 287 286 285 283 282 282 283 284 285 285 285 285 286 286 285 283 279 276 277 278 273 265 260 258 259 262 265 266 261 257 256 255 252 249 247 244 242 240 240 241 241 241 241
262 257 250 241 238 239 239 240 242 243 247 251 253 256 258 261 267 274 282 290 295 297 299 301 303 305 307 308 309 309 308 307 306 305 303 302 300 298 297 296 293 290 287 285 284 282 280 279 280 282 283 283 284 285 286 285 284 283 279 273 271 272 274 273 268 261 258 259 261 265 267 264 260 258 257 255 252 250 248 244 241 241 241 241 241
261 252 245 238 234 235 236 236 237 239 243 247 250 253 256 261 269 276 283 288 291 294 296 299 302 305 307 308 308 307 307 306 306 304 302 301 298 297 295 293 290 287 284 282 280 278 277 276 276 278 278 279 281 282 283 283 283 283 280 274 272 272 273 275 274 269 263 260 259 261 265 267 266 262 259 258 256 255 255 252 247 243 241 240 241
256 247 240 234 230 231 232 232 234 236 239 242 246 249 254 262 270 277 282 286 289 292 296 300 303 305 306 306 306 306 307 307 306 304 303 302 299 297 294 290 287 284 281 279 277 275 273 271 271 271 271 274 278 280 280 281 284 284 278 273 274 272 270 271 274 274 270 263 259 259 260 262 264 264 262 261 259 258 259 258 252 246 242 240 240
255 245 236 229 226 227 227 229 230 232 234 237 242 248 255 264 272 278 283 287 290 295 299 301 303 304 304 305 305 305 305 305 304 304 303 302 301 298 295 291 287 283 279 277 275 273 271 269 268 267 266 268 273 276 277 279 281 280 275 273 273 271 268 266 266 267 269 266 263 260 258 256 259 261 260 263 264 261 260 259 254 249 244 241 240
253 241 231 225 222 223 224 226 228 228 230 234 242 251 260 267 273 278 283 287 292 296 299 300 302 303 303 304 304 304 304 304 303 302 301 300 299 296 294 292 288 285 282 278 274 271 269 267 266 266 265 265 268 272 273 275 277 276 274 273 272 269 265 263 262 264 267 267 266 263 258 254 254 257 257 259 265 265 263 259 253 248 244 241 240
246 234 226 220 218 219 220 221 224 226 228 235 245 256 263 268 274 280 285 289 294 296 298 300 301 302 303 303 303 302 303 302 301 300 299 297 295 293 291 288 286 284 282 279 276 273 271 268 267 266 265 263 264 268 270 270 271 271 271 271 270 267 263 261 263 263 260 258 258 258 258 255 254 256 255 254 259 264 266 263 255 248 245 242 241
243 232 222 216 214 214 214 215 219 224 230 239 250 259 265 270 277 283 288 292 294 297 298 300 302 302 302 302 301 301 301 300 299 298 296 294 291 289 286 284 282 280 277 274 272 271 269 267 267 267 266 264 262 264 265 264 266 266 267 268 266 265 265 263 262 257 251 250 251 252 256 255 253 254 255 253 254 256 261 264 260 252 247 243 243
238 225 217 213 212 210 209 212 218 228 239 249 255 260 267 275 282 287 290 293 295 298 300 302 302 302 302 301 301 301 301 300 300 299 296 293 289 286 284 282 280 278 275 272 271 269 266 265 264 264 264 262 259 259 258 259 262 262 263 266 266 264 264 264 261 256 252 250 248 247 251 253 252 253 256 254 251 250 253 259 262 258 246 239 241
228 218 212 209 207 206 208 214 223 233 242 249 256 264 273 281 285 289 292 296 299 302 304 305 304 303 302 302 302 302 302 303 303 301 298 293 289 286 284 281 279 276 275 274 273 272 271 270 269 267 266 265 262 261 261 261 261 259 256 257 258 256 256 257 257 256 254 251 249 247 249 251 250 250 253 254 251 248 249 252 257 261 251 239 236
219 210 204 199 198 201 206 212 220 230 240 252 264 273 279 284 288 294 299 303 306 307 308 308 308 307 306 306 307 306 306 306 305 302 298 294 290 287 284 282 279 276 275 275 275 275 275 276 275 274 274 272 269 266 264 262 259 254 250 250 250 249 249 251 252 254 255 253 247 243 244 247 247 245 246 252 253 251 249 250 252 255 253 244 238
207 199 193 190 191 193 197 206 220 236 250 263 272 278 284 290 297 303 307 310 311 312 313 313 313 312 310 310 310 309 309 309 305 301 297 293 290 287 284 281 278 277 277 278 276 277 277 277 276 276 275 274 272 269 266 263 260 254 248 247 246 244 245 247 247 249 251 251 243 237 238 241 242 240 240 246 252 253 251 250 251 251 249 248 246